| time (UTC) | temp C | wind direction | speed KPH | gust KPH | rain 1hr cm | rain 24hr cm | rain mn cm | humidity % | barometer mb |
| 20260508074518 | 16 | 233 | 9.7 | 16.1 | 0.00 | 0.03 | 0.03 | 77 | 1015.8 |
| 20260508073022 | 16 | 233 | 6.4 | 16.1 | 0.00 | 0.03 | 0.03 | 79 | 1015.8 |
| 20260508071511 | 15 | 210 | 4.8 | 12.9 | 0.00 | 0.03 | 0.03 | 78 | 1015.8 |
| 20260508070020 | 15 | 181 | 4.8 | 11.3 | 0.00 | 0.03 | 0.03 | 80 | 1015.6 |
| 20260508064534 | 15 | 195 | 4.8 | 12.9 | 0.00 | 0.03 | 0.03 | 80 | 1015.7 |
| 20260508063019 | 15 | 184 | 6.4 | 11.3 | 0.00 | 0.03 | 0.03 | 81 | 1015.6 |
| 20260508061523 | 15 | 166 | 4.8 | 9.7 | 0.00 | 0.03 | 0.03 | 81 | 1015.4 |
| 20260508060009 | 15 | 188 | 4.8 | 8.0 | 0.00 | 0.03 | 0.03 | 82 | 1015.2 |
| 20260508054528 | 14 | 148 | 3.2 | 4.8 | 0.00 | 0.03 | 0.03 | 81 | 1015.1 |
| 20260508053019 | 13 | 139 | 3.2 | 4.8 | 0.00 | 0.03 | 0.03 | 82 | 1015.0 |
| 20260508051520 | 13 | 219 | 1.6 | 4.8 | 0.00 | 0.03 | 0.03 | 84 | 1014.8 |
| 20260508050024 | 12 | 287 | 0.0 | 3.2 | 0.00 | 0.03 | 0.03 | 87 | 1014.8 |
| 20260508044510 | 12 | 296 | 3.2 | 4.8 | 0.00 | 0.03 | 0.03 | 87 | 1014.6 |
| 20260508043014 | 11 | 288 | 3.2 | 6.4 | 0.00 | 0.03 | 0.03 | 88 | 1014.2 |
| 20260508041520 | 11 | 272 | 3.2 | 4.8 | 0.00 | 0.03 | 0.03 | 88 | 1014.3 |
| 20260508040038 | 11 | 276 | 3.2 | 4.8 | 0.00 | 0.03 | 0.03 | 87 | 1014.1 |
| 20260508034536 | 11 | 261 | 3.2 | 6.4 | 0.00 | 0.03 | 0.03 | 87 | 1014.0 |
| 20260508033017 | 11 | 264 | 3.2 | 4.8 | 0.00 | 0.03 | 0.03 | 86 | 1013.8 |
| 20260508031519 | 11 | 245 | 3.2 | 4.8 | 0.00 | 0.03 | 0.03 | 86 | 1013.7 |
| 20260508030022 | 11 | 271 | 3.2 | 4.8 | 0.00 | 0.03 | 0.03 | 87 | 1013.5 |
| 20260508024527 | 11 | 244 | 4.8 | 6.4 | 0.00 | 0.03 | 0.03 | 86 | 1013.6 |
| 20260508023027 | 11 | 293 | 1.6 | 1.6 | 0.00 | 0.03 | 0.03 | 86 | 1013.4 |
| 20260508021515 | 11 | 293 | 0.0 | 0.0 | 0.00 | 0.03 | 0.03 | 86 | 1013.4 |
| 20260508020022 | 11 | 293 | 1.6 | 1.6 | 0.00 | 0.03 | 0.03 | 86 | 1013.5 |
| 20260508014504 | 11 | 293 | 1.6 | 3.2 | 0.00 | 0.03 | 0.03 | 88 | 1013.6 |
| 20260508013008 | 11 | 308 | 3.2 | 4.8 | 0.00 | 0.03 | 0.03 | 90 | 1013.6 |
| 20260508011503 | 11 | 329 | 0.0 | 1.6 | 0.00 | 0.03 | 0.03 | 92 | 1013.3 |
| 20260508010004 | 11 | 25 | 0.0 | 3.2 | 0.00 | 0.03 | 0.03 | 92 | 1013.4 |
| 20260508004503 | 10 | 221 | 0.0 | 3.2 | 0.00 | 0.03 | 0.03 | 92 | 1013.5 |
| 20260508003004 | 11 | 343 | 3.2 | 4.8 | 0.00 | 0.03 | 0.03 | 93 | 1013.8 |
| 20260508001507 | 11 | 350 | 4.8 | 6.4 | 0.03 | 0.03 | 0.03 | 93 | 1013.8 |
| 20260508000002 | 11 | 110 | 0.0 | 0.0 | 0.03 | 0.03 | 0.03 | 93 | 1014.2 |
| 20260507234503 | 11 | 124 | 0.0 | 4.8 | 0.03 | 0.03 | 0.03 | 93 | 1014.7 |
| 20260507233004 | 11 | 145 | 0.0 | 1.6 | 0.03 | 0.03 | 0.03 | 93 | 1014.9 |
| 20260507231506 | 11 | 160 | 1.6 | 6.4 | 0.00 | 0.00 | 0.00 | 93 | 1015.2 |
| 20260507230014 | 11 | 263 | 6.4 | 9.7 | 0.00 | 0.00 | 0.00 | 93 | 1015.4 |
| 20260507224516 | 11 | 282 | 4.8 | 12.9 | 0.00 | 0.00 | 0.00 | 92 | 1015.4 |
| 20260507223007 | 11 | 265 | 11.3 | 14.5 | 0.00 | 0.00 | 0.00 | 91 | 1015.8 |
| 20260507221504 | 12 | 304 | 8.0 | 11.3 | 0.00 | 0.00 | 0.00 | 85 | 1015.2 |
| 20260507220006 | 12 | 302 | 1.6 | 1.6 | 0.00 | 0.00 | 0.00 | 85 | 1014.8 |
| 20260507214509 | 12 | 131 | 0.0 | 4.8 | 0.00 | 0.00 | 0.00 | 85 | 1014.4 |
| 20260507213023 | 11 | 339 | 1.6 | 8.0 | 0.00 | 0.00 | 0.00 | 90 | 1014.1 |
| 20260507211504 | 11 | 154 | 0.0 | 0.0 | 0.00 | 0.00 | 0.00 | 91 | 1014.3 |
| 20260507210005 | 11 | 154 | 1.6 | 1.6 | 0.00 | 0.00 | 0.00 | 91 | 1014.5 |
| 20260507204508 | 11 | 223 | 1.6 | 4.8 | 0.00 | 0.00 | 0.00 | 91 | 1014.7 |
| 20260507203012 | 11 | 275 | 0.0 | 1.6 | 0.00 | 0.00 | 0.00 | 90 | 1014.6 |
| 20260507201517 | 11 | 257 | 3.2 | 4.8 | 0.00 | 0.00 | 0.00 | 90 | 1014.7 |
| 20260507200004 | 11 | 262 | 0.0 | 3.2 | 0.00 | 0.00 | 0.00 | 89 | 1014.5 |
| 20260507194520 | 11 | 138 | 0.0 | 0.0 | 0.00 | 0.00 | 0.00 | 89 | 1014.3 |
| 20260507193014 | 11 | 138 | 0.0 | 0.0 | 0.00 | 0.00 | 0.00 | 88 | 1014.1 |
| 20260507191516 | 11 | 103 | 0.0 | 0.0 | 0.00 | 0.00 | 0.00 | 88 | 1013.9 |
| 20260507190027 | 11 | 100 | 0.0 | 4.8 | 0.00 | 0.00 | 0.00 | 88 | 1013.9 |
| 20260507184504 | 11 | 135 | 1.6 | 4.8 | 0.00 | 0.00 | 0.00 | 87 | 1014.0 |
| 20260507183008 | 11 | 99 | 3.2 | 12.9 | 0.00 | 0.00 | 0.00 | 87 | 1013.8 |
| 20260507181508 | 11 | 180 | 4.8 | 8.0 | 0.00 | 0.00 | 0.00 | 87 | 1014.1 |
| 20260507180018 | 12 | 134 | 3.2 | 9.7 | 0.00 | 0.00 | 0.00 | 87 | 1013.7 |
| 20260507174519 | 12 | 152 | 4.8 | 11.3 | 0.00 | 0.00 | 0.00 | 86 | 1013.2 |
| 20260507173011 | 12 | 124 | 8.0 | 11.3 | 0.00 | 0.00 | 0.00 | 85 | 1013.5 |
| 20260507171509 | 12 | 166 | 4.8 | 11.3 | 0.00 | 0.00 | 0.00 | 84 | 1013.7 |
| 20260507170019 | 13 | 160 | 4.8 | 14.5 | 0.00 | 0.00 | 0.00 | 83 | 1013.6 |
| 20260507164522 | 13 | 92 | 6.4 | 12.9 | 0.00 | 0.00 | 0.00 | 82 | 1013.7 |
| 20260507163021 | 13 | 105 | 11.3 | 20.9 | 0.00 | 0.00 | 0.00 | 80 | 1013.5 |
| 20260507161505 | 13 | 116 | 11.3 | 25.7 | 0.00 | 0.00 | 0.00 | 79 | 1013.5 |
| 20260507160010 | 14 | 108 | 11.3 | 17.7 | 0.00 | 0.00 | 0.00 | 78 | 1013.9 |
| 20260507154514 | 14 | 137 | 12.9 | 20.9 | 0.00 | 0.00 | 0.00 | 77 | 1013.9 |
| 20260507151524 | 14 | 96 | 8.0 | 27.4 | 0.00 | 0.00 | 0.00 | 76 | 1014.0 |
| 20260507150008 | 15 | 74 | 11.3 | 20.9 | 0.00 | 0.00 | 0.00 | 76 | 1013.1 |
| 20260507144511 | 14 | 168 | 11.3 | 22.5 | 0.00 | 0.00 | 0.00 | 77 | 1013.4 |
| 20260507141521 | 15 | 60 | 12.9 | 25.7 | 0.00 | 0.00 | 0.00 | 73 | 1013.5 |
| 20260507140023 | 15 | 124 | 14.5 | 33.8 | 0.00 | 0.00 | 0.00 | 74 | 1013.5 |
| 20260507134507 | 16 | 139 | 14.5 | 27.4 | 0.00 | 0.00 | 0.00 | 72 | 1013.9 |
| 20260507130021 | 15 | 139 | 16.1 | 27.4 | 0.00 | 0.00 | 0.00 | 71 | 1013.7 |
| 20260507124534 | 16 | 89 | 16.1 | 27.4 | 0.00 | 0.00 | 0.00 | 68 | 1014.3 |
| 20260507121516 | 16 | 109 | 17.7 | 29.0 | 0.00 | 0.00 | 0.00 | 66 | 1014.1 |
| 20260507120007 | 16 | 98 | 16.1 | 27.4 | 0.00 | 0.00 | 0.00 | 65 | 1013.7 |
| 20260507113027 | 15 | 87 | 19.3 | 35.4 | 0.00 | 0.00 | 0.00 | 61 | 1013.9 |
| 20260507111512 | 16 | 68 | 20.9 | 41.8 | 0.00 | 0.00 | 0.00 | 58 | 1014.2 |
| 20260507110018 | 16 | 88 | 22.5 | 35.4 | 0.00 | 0.00 | 0.00 | 57 | 1014.5 |
| 20260507104504 | 17 | 58 | 16.1 | 29.0 | 0.00 | 0.00 | 0.00 | 55 | 1014.4 |
| 20260507103004 | 16 | 85 | 24.1 | 35.4 | 0.00 | 0.00 | 0.00 | 54 | 1014.5 |
| 20260507101516 | 16 | 101 | 29.0 | 45.1 | 0.00 | 0.00 | 0.00 | 53 | 1014.3 |
| 20260507100016 | 16 | 96 | 25.7 | 40.2 | 0.00 | 0.00 | 0.00 | 50 | 1014.6 |
| 20260507094521 | 16 | 79 | 27.4 | 46.7 | 0.00 | 0.00 | 0.00 | 48 | 1014.8 |
| 20260507093004 | 16 | 93 | 20.9 | 43.5 | 0.00 | 0.00 | 0.00 | 47 | 1014.8 |
| 20260507091508 | 16 | 108 | 20.9 | 40.2 | 0.00 | 0.00 | 0.00 | 46 | 1014.9 |
| 20260507090013 | 16 | 135 | 22.5 | 38.6 | 0.00 | 0.00 | 0.00 | 47 | 1015.0 |
| 20260507084517 | 15 | 108 | 24.1 | 38.6 | 0.00 | 0.00 | 0.00 | 49 | 1015.1 |